Location: Winthrop
(48.4780°N, 120.1850°W)
Time: 16:14:28
(UTC-07:00)

Vanguard 3 - Pass Details

Date: 13 February 2023
Orbit: 508 x 3249 km, 33.3° (Epoch: 22 March)

Event Time Altitude Azimuth Distance (km) Brightness Sun altitude
Rises 20:09:12 0° 256° (WSW) 3,975 11.6 -28.6°
Reaches altitude 10° 20:12:09 10° 242° (WSW) 3,359 10.8 -29.1°
Maximum altitude 20:18:54 24° 193° (SSW) 3,123 10.0 -30.2°
Enters shadow 20:23:35 19° 164° (SSE) 3,879 10.3 -30.9°
